Location: Nag� el Ma?a??a
(24.0667°N, 32.8833°E)
Time: 17:10:14
(UTC+00:00)

FALCON 9 DEB - Pass Details

Date: 25 September 2021
Orbit: 419 x 429 km, 53.0° (Epoch: 16 October)

Event Time Altitude Azimuth Distance (km) Brightness Sun altitude
Exits shadow 02:41:52 - 203° (SSW) 1,799 6.0 -13.7°
Reaches altitude 10° 02:42:36 10° 200° (SSW) 1,502 5.6 -13.5°
Maximum altitude 02:45:50 44° 127° (SE) 593 4.2 -12.8°
Drops below altitude 10° 02:49:04 10° 53° (NE) 1,501 6.8 -12.0°
Sets 02:51:12 0° 47° (NE) 2,365 7.7 -11.5°
